Location: Ivors
(49.2010°N, 3.0153°E)
Time: 12:11:21
(UTC+00:00)

Daily predictions for brighter satellites

Satellite Brightness Start Highest point End
(mag) Time Altitude Azimuth Time Altitude Azimuth Time Altitude Azimuth
Cosmos 2219 3.2 16:35:42 10° NNW 16:41:19 66° ENE 16:46:55 10° SE
Elektron 3 3.9 16:38:45 10° SW 16:42:15 74° NW 16:45:07 10° NE
SMAP 3.2 16:38:05 10° SE 16:42:36 52° ENE 16:47:08 10° N
Cosmos 1340 Rocket 3.1 16:38:40 10° SSW 16:42:41 74° WNW 16:46:46 10° N
SeaSat 1 2.9 16:38:07 10° ESE 16:42:43 41° NE 16:47:20 10° NNW
Cosmos 2369 Rocket 3.8 16:39:20 10° WSW 16:44:08 28° NW 16:48:57 10° NNE
Lacrosse 4 Rocket 3.4 16:47:25 10° ESE 16:48:17 11° ESE 16:49:09 10° E
Cosmos 1869 4.3 16:47:24 10° SSE 16:50:42 26° E 16:54:01 10° NNE
Cosmos 2221 2.6 16:47:17 10° S 16:51:31 57° E 16:55:48 10° NNE
YAOGAN 6 4.1 16:49:53 10° ESE 16:52:09 17° ENE 16:54:25 10° NNE
ASTEX 1 3.5 16:47:23 10° N 16:52:25 88° E 16:57:26 10° S
YAOGAN 1 4.0 16:52:40 10° ESE 16:55:36 18° ENE 16:58:33 10° NNE
Cosmos 1455 3.4 16:52:40 10° SSW 16:56:17 43° WNW 16:59:54 10° N
IRS-1C Rocket 4.1 16:51:50 10° SSE 16:57:07 85° ENE 17:02:26 10° NNW
Cosmos 1689 Rocket 3.9 16:54:38 10° N 16:57:26 33° WNW 17:00:11 10° SW
Cosmos 2227 Rocket 2.2 16:55:15 10° NNW 17:00:53 60° ENE 17:06:29 10° SE
Cosmos 2297 Rocket 2.2 16:55:22 10° NNW 17:01:01 64° ENE 17:06:38 10° SE
Cosmos 1238 Rocket 2.8 16:56:24 10° N 17:01:03 79° E 17:04:48 10° SSE
CORIOLIS 4.1 16:55:45 10° SSE 17:01:06 67° ENE 17:06:31 10° N
ERBS 4.3 16:59:26 10° SSE 17:01:16 14° SE 17:02:51 11° E
CZ-4 R/B 2.5 16:58:17 10° ESE 17:01:34 23° ENE 17:04:48 10° NNE
CENTAUR R/B 4.1 16:56:53 10° WNW 17:02:42 27° N 17:09:15 10° NE
Cosmos 1842 Rocket 3.8 17:00:44 10° SSW 17:05:13 77° W 17:09:43 10° N
Meteor 2-10 Rocket 3.9 17:00:23 10° SSW 17:05:21 66° WNW 17:10:26 10° N
Cosmos 2344 3.8 17:00:44 10° SW 17:08:14 79° NW 17:16:47 10° NE
Okean-O 2.6 17:06:44 10° SSE 17:11:04 59° ENE 17:15:27 10° N
Cosmos 1939 Rocket 4.5 17:14:57 16° ENE 17:15:23 16° ENE 17:17:55 10° NNE
Cosmos 1943 Rocket 4.4 17:11:45 10° W 17:15:35 18° NW 17:19:28 10° N
Ariane Rocket 4.4 17:14:22 14° E 17:16:24 18° NE 17:19:43 10° NNE
H-2A R/B 2.8 17:14:20 10° SSE 17:18:12 85° WSW 17:22:03 10° NNW
ATLAS 3B R/B 4.1 17:15:26 10° WNW 17:20:38 23° N 17:25:37 11° NE
Genesis I 3.3 17:18:27 10° SW 17:22:28 83° NW 17:25:52 14° NE
Cosmos 1805 Rocket 3.4 17:18:42 10° N 17:23:04 75° E 17:27:27 10° SSE
Cosmos 2263 Rocket 3.6 17:19:39 10° N 17:23:28 18° NE 17:25:09 16° ENE
Cosmos 773 Rocket 3.9 17:19:33 10° SSW 17:24:43 81° ESE 17:29:58 10° NNE
Cosmos 2233 Rocket 4.4 17:18:29 10° NNW 17:24:46 69° W 17:31:00 10° S
Cosmos 1867 3.8 17:20:44 10° SW 17:26:11 70° NW 17:31:31 11° NE
H-2A R/B 4.1 17:28:54 10° NE 17:28:54 10° NE 17:28:59 10° NE
Cosmos 2082 3.7 17:23:12 10° NNW 17:28:47 62° ENE 17:34:21 10° SE
COBE Rocket 3.7 17:28:29 10° NNE 17:33:20 74° E 17:38:02 10° S
Cosmos 2056 Rocket 4.3 17:32:09 10° N 17:36:39 30° NE 17:38:47 22° E
Cosmos 1697 Rocket 3.3 17:33:53 10° S 17:38:58 36° ESE 17:42:03 21° NE
Meteor 2-2 Rocket 4.3 17:33:14 10° SSW 17:39:06 86° WNW 17:44:53 10° NNE
ATLAS 5 CENTAUR R/B 2.7 17:33:37 10° NW 17:39:19 68° SW 17:45:50 10° SSE
Cosmos 2278 4.5 17:35:22 10° SSE 17:40:12 30° ESE 17:42:21 23° ENE
Meteor 2-20 Rocket 4.4 17:34:26 10° S 17:40:29 69° E 17:46:37 10° NNE
Cosmos 1862 3.3 17:37:11 10° N 17:41:07 53° ENE 17:45:00 10° SSE
CZ-3B R/B 3.6 17:41:51 10° WNW 17:43:46 25° N 17:43:57 25° N
Cosmos 1538 Rocket 4.0 17:39:51 10° SSW 17:45:07 90° SSE 17:50:30 10° NNE
BREEZE-M DEB (TANK) 1.8 17:43:48 10° W 17:47:14 80° N 17:47:37 58° ENE
Cosmos 1464 Rocket 3.9 17:41:52 10° N 17:48:04 77° E 17:54:12 10° SSE
Cosmos 1891 Rocket 4.4 17:41:51 10° N 17:48:16 78° E 17:54:31 10° SSE
NOAA 12 4.5 17:43:38 10° S 17:48:56 69° WSW 17:54:17 10° NNW
GEOS 3 Rocket 3.6 17:45:35 17° NE 17:49:42 87° NW 17:54:59 10° SW
Cosmos 1633 Rocket 2.9 17:48:07 10° N 17:52:31 67° E 17:56:55 10° SSE
Cosmos 1072 Rocket 4.5 17:51:05 10° N 17:57:14 86° W 18:03:25 10° S
Cosmos 397 4.3 17:55:18 10° NW 17:59:29 77° NE 18:01:34 28° SE
USA 215 3.4 17:56:07 26° E 17:59:51 61° NNE 18:06:16 10° WNW
Cosmos 1633 2.7 17:57:12 10° NNW 18:00:51 72° W 18:04:28 10° S
COSMO-SKYMED 1 2.4 17:57:33 10° NNE 18:01:55 75° ESE 18:06:15 10° S
Cosmos 1666 Rocket 3.6 17:59:37 10° NNW 18:04:03 78° W 18:08:22 10° S
Cosmos 1933 Rocket 4.4 18:00:57 10° N 18:03:44 31° NE 18:03:44 31° NE
Sich 1 3.7 18:00:47 10° NNW 18:05:03 57° W 18:09:20 10° S
NOSS 2-3 (E) 4.1 18:04:23 10° SSW 18:08:32 42° ESE 18:08:53 41° ESE
Cosmos 1656 3.6 18:03:50 10° SSW 18:09:24 86° WNW 18:13:25 19° NNE
Cosmos 1328 Rocket 3.5 18:05:48 10° S 18:10:08 57° E 18:11:27 40° NE
USA 229 DEB 3.7 18:04:21 10° SW 18:10:59 82° NW 18:15:39 23° NE
USA 229 3.7 18:04:28 10° SW 18:11:05 83° NW 18:15:43 23° NE
Envisat 3.8 18:06:58 10° S 18:11:56 53° W 18:16:56 10° NNW
NOAA 11 4.1 18:07:03 10° SSE 18:12:22 62° ENE 18:17:44 10° N
Cosmos 1151 Rocket 3.0 18:08:39 10° S 18:12:54 56° E 18:13:22 53° ENE
NOSS 3-1 (A) 3.2 18:10:33 10° SSW 18:16:07 72° SE 18:18:59 34° NE
Cosmos 1356 Rocket 4.3 18:12:14 10° SSW 18:16:16 49° WNW 18:20:25 10° N
NOSS 3-1 (C) 3.4 18:10:50 10° SW 18:16:29 81° NW 18:20:14 26° NE
CSL-04 Debris 4.2 18:11:04 10° SSE 18:16:34 87° WSW 18:22:07 10° NNW
NOSS 2-3 (D) 4.0 18:13:45 10° SSW 18:17:55 47° SE 18:17:55 47° SE
Cosmos 1932 4.4 18:12:04 10° NW 18:18:39 79° NE 18:22:24 28° SE
SeaSat 1 3.9 18:15:43 10° S 18:20:15 37° WSW 18:24:51 10° NW
CZ-2D R/B 4.0 18:24:16 41° N 18:24:16 41° N 18:26:54 10° N
YAOGAN 6 3.8 18:22:03 10° S 18:25:23 41° W 18:28:43 10° NNW
Lacrosse 4 Rocket 1.1 18:22:11 10° SSW 18:26:16 89° ESE 18:26:18 88° ENE
Cosmos 1371 Rocket 3.8 18:21:52 10° NNW 18:27:07 80° ENE 18:29:08 38° SSE
YAOGAN 1 3.0 18:27:00 10° S 18:31:17 61° W 18:35:35 10° NNW
CSL-04 Rocket 4.0 18:28:59 10° S 18:34:18 64° WSW 18:39:36 10° NNW
Cosmos 1470 Rocket 3.6 18:30:27 10° NNW 18:34:58 82° W 18:37:25 27° S
CZ-4 R/B 2.7 18:32:27 10° S 18:36:23 40° W 18:40:16 10° NNW
USA 116 4.2 18:34:34 29° N 18:36:55 78° WNW 18:41:55 10° SSW
ERBS 3.8 18:33:50 10° SW 18:35:53 35° WSW 18:35:53 35° WSW
MOS 1 4.5 18:39:53 51° NE 18:39:53 51° NE 18:44:45 10° N
Cosmos 2346 Rocket 4.4 18:33:32 10° S 18:39:47 89° E 18:46:01 10° N
Cosmos 724 4.4 18:34:36 10° NW 18:40:26 70° WSW 18:43:12 32° SSE
Cosmos 2112 Rocket 3.8 18:37:42 10° SSW 18:42:53 85° ESE 18:43:25 72° NE
Cosmos 1980 Rocket 2.2 18:37:20 10° S 18:42:22 58° SE 18:42:22 58° SE
Cosmos 2227 Rocket 4.3 18:39:57 10° NW 18:44:33 26° WSW 18:49:07 10° SSW
Cosmos 2297 Rocket 4.4 18:40:11 10° NW 18:44:36 24° WSW 18:49:01 10° SSW
Cosmos 1939 Rocket 3.7 18:50:52 47° NW 18:50:52 47° NW 18:53:59 10° NNW
Cosmos 1680 Rocket 3.6 18:44:57 10° SSW 18:50:09 75° WNW 18:51:19 54° N
Ariane Rocket 2.9 18:54:35 82° SW 18:54:44 83° WSW 18:59:51 10° NNW
CENTAUR R/B 3.8 18:49:01 10° NW 18:55:42 34° NNE 18:56:35 33° NNE
NOSS 2-3 (C) 4.1 18:51:23 10° SW 18:54:59 61° SW 18:54:59 61° SW
USA 238 DEB 4.2 18:55:24 10° NW 19:02:04 46° NNE 19:02:04 46° NNE
USA 238 4.2 18:55:30 10° NW 19:02:10 45° NNE 19:02:10 45° NNE
Cosmos 2369 4.2 18:58:47 10° SW 19:04:21 56° WNW 19:06:07 40° N
H-2A R/B 3.9 19:09:31 21° N 19:09:31 21° N 19:11:13 10° N
Cosmos 1634 Rocket 3.9 18:59:58 10° N 19:06:13 87° W 19:07:07 67° S
Cosmos 2263 Rocket 2.7 19:02:49 10° NNW 19:06:53 48° N 19:06:53 48° N
NOSS 3-2 (A) 4.3 19:01:59 10° NW 19:08:42 46° NNE 19:08:42 46° NNE
Tsikada Rocket 4.3 19:03:10 10° SSW 19:09:29 67° WNW 19:15:55 10° N
ATLAS 3B R/B 3.8 19:07:47 10° NW 19:12:52 28° NNE 19:12:52 28° NNE
Cosmos 2360 4.4 19:11:19 10° SW 19:16:37 67° W 19:16:37 67° W
Cosmos 2056 Rocket 4.3 19:14:05 10° NNW 19:18:59 47° WSW 19:19:10 46° WSW
Cosmos 1697 Rocket 3.6 19:17:25 10° SW 19:22:50 45° NW 19:23:49 41° NNW
Cosmos 2278 4.3 19:18:31 10° SW 19:24:04 53° NW 19:24:19 53° NW
USA 215 3.5 19:43:28 61° WSW 19:43:28 61° WSW 19:49:23 10° WNW
CENTAUR R/B 4.3 20:39:54 10° NW 20:43:46 34° NNW 20:43:46 34° NNW
